Terminal Aerodrome Forecast
Issued by NWS

Home | Current Version | Previous Version | Text Only | Print | Product List | Glossary On
Versions: 1 2 3 4 5 6 7 8 9 10 11 12 13 14 15 16 17 18 19 20 21 22 23 24 25 26 27 28 29
323
FTUS46 KOTX 110522
TAFMWH
TAF
KMWH 110522Z 1106/1206 32004KT P6SM SCT020 OVC050
     FM111600 36004KT P6SM VCSH BKN015 OVC040
     FM120300 35007KT P6SM -RA SCT015 BKN030 OVC040=

USA.gov is the U.S. government's official web portal to all federal, state and local government web resources and services.